Погода в Твери

Хотите узнать прогноз погоды в Твери? Тогда Вам сюда: Погода в Твери

Поиск расширенной информации на нашем сайте:

Полезная информация:

Новости сайта



02.01.2020
Опубликован Долгосрочный прогноз погоды по городам России и ближнего зарубежья на январь 2020 года.
Карты: Прогноз на январь и февраль 2020 года, Сравнение прогнозируемой аномалии приземной температуры воздуха на январь 2020 года по разным моделям.




Погода в Твери - сегодня

Время (UTC), дата Ветер
(°,м/с) 
Видим.   Явления Облачность Т
(°С)
Тd
(°С)
f(%) Тe
(°С)
Pmin
(гПа)
dP
(гПа)
Po
(мм)
O2
(г/м3)
Тmin Tmax R s Состояние
почвы
09 16.01.21 320 (СЗ) 4000 м  слаб. снег  10/10 300 м 
[Frnb|Ns]
-18.8 -21.6 78 -19  1010.6  -0.9  743  323           
12 16.01.21 330 (СЗ) 4000 м  слаб. снег  10/6 200 м средняя 
[Frnb|As op]
-17.3 -19.9 80 -17  1009.2  -1.2  742  321           
15 16.01.21 330 (СЗ) 10 км  {снег}  10/3 300 м средняя 
[St|Ac und]
-17.8 -20.4 80 -18  1009.3  742  322         
18 16.01.21 320 (СЗ) 10 км  слаб. снег  10/0 средняя 
[As op]
-18.4 -21.1 79 -19  1010.6  1.3  743  323    -17.3     
21 16.01.21 330 (СЗ) 10 км  {снег}  8/0 средняя 
[Ac trans]
-20.3 -23 79 -21  1011.9  1.1  744  326           
00 17.01.21 330 (СЗ) 10 км  {снег}  4/0 средняя 
[Ac trans]
-22 -24.6 79 -22  1013  0.9  745  328           
03 17.01.21 280 (З) 10 км    3/0 средняя 
[Ac trans]
-22.9 -25.6 79 -23  1014.1  746  330  -22.9    0.0     
06 17.01.21 300 (СЗ) 10 км    ясно 
-23.3 -26 78 -24  1015.8  1.7  747  331  -23.5    0.0  36  равномерный
сухой снег
100% 
09 17.01.21 300 (СЗ) 10 км    3/0 верхняя 
[Ci fib]
-20.2 -23.3 76 -20  1017.5  1.8  748  327           
12 17.01.21 300 (СЗ) 10 км    3/0 верхняя 
[Ci fib]
-17.9 -21.1 76 -18  1017.8  0.4  749  324           
15 17.01.21 тихо ()   10 км    3/0 средняя 
[As trans]
-22.8 -25.2 81 -23  1019.2  1.1  749  331           
18 17.01.21 290 (З) 10 км    4/0 средняя 
[Ac trans]
-21.8 -24.2 81 -22  1020.3  1.1  750  330    -17.8       
21 17.01.21 тихо ()   10 км    3/0 средняя 
[Ac trans]
-24.3 -27 78 -24  1020.3  -0.2  750  334           
00 18.01.21 тихо ()   10 км    9/9 600 м средняя 
[Ac trans]
-24.6 -27.5 77 -25  1020.5  0.2  750  334           
03 18.01.21 тихо ()   10 км    10/10 100 м 
[St]
-23.2 -25.9 78 -23  1020.4  750  332  -25.9         
06 18.01.21 260 (З) 2000 м  дымка{снег}  10/10 100 м 
[St]
-22.6 -25.2 79 -23  1021.2  0.8  751  332  -25.9    0.0  36  равномерный
сухой снег
100% 
09 18.01.21 тихо ()   10 км    9/6 200 м средняя 
[St|Ac trans]
-20.9 -23.5 80 -21  1021  751  329           
12 18.01.21 тихо ()   10 км  слаб. снег  9/6 200 м средняя 
[Frnb|As op]
-18.2 -20.5 82 -18  1019.7  -1  750  325           
15 18.01.21 240 (ЮЗ) 10 км  в посл. час снег  10/6 100 м средняя 
[St|Ac trans]
-17 -19 84 -17  1019.7  0.1  750  324      0.2     
18 18.01.21 тихо ()   10 км  {снег}  10/6 200 м средняя 
[St|Ac trans]
-16.2 -18.3 84 -16  1019.5  -0.1  750  323    -16.2  0.2     
21 18.01.21 тихо ()   10 км  слаб. снег  10/0 средняя 
[As op]
-16.4 -18.4 84 -16  1019.5  750  323           
00 19.01.21 тихо ()   10 км  слаб. снег  10/10 300 м 
[Frnb|Ns]
-15.7 -17.7 85 -16  1018.3  -1.2  749  322           
03 19.01.21 тихо ()   10 км  слаб. снег  8/0 средняя 
[As op]
-15.1 -17 85 -15  1018.2  749  321  -17.1    0.2     
06 19.01.21 тихо ()   4000 м  слаб. снег  10/6 300 м средняя 
[Frnb|As op]
-14.3 -16.2 85 -14  1017.9  -0.3  749  320  -17.1    0.4  36  равномерный
сухой снег
100% 
09 19.01.21 240 (ЮЗ) 10 км  в посл. час снег  10/4 200 м средняя 
[St|Ac und]
-12.2 -14 86 -12  1017.8  0.1  749  317           
Время (UTC), дата Ветер
(°,м/с) 
Видим.   Явления Облачность Т
(°С)
Тd
(°С)
f(%) Тe
(°С)
Pmin
(гПа)
dP
(гПа)
Po
(мм)
O2
(г/м3)
Тmin Tmax R s Состояние
почвы

Для получения пояснительной информации подведите курсор к названию столбца.

ПОГОДА в Твери - архив

Всё, что Вы хотите узнать о погоде в Твери - удобно и подробно!

Выберите нужную дату (начиная с 1 января 2019* года) и нажмите кнопку "Найти".
Будут отображены архивные сводки погоды по пункту Тверь, начиная с указанной даты.


Отображать данные в формате CSV (для использования в таблицах Excel)


Внимание! Наш архив погоды предназначен исключительно для личного некоммерческого использования в познавательных целях. Если Вам необходимы официальные справки о состоянии погоды (для производственных, юридических, коммерческих и т.п. целей), обращайтесь в органы Росгидромета.

*Примечание: данная дата относится к архиву по метеостанциям СССР (Россия, СНГ, Балтия).
Архив по метеостанциям Зарубежной Европы и Азии (кроме Китая) хранится 10 дней, по другим регионам земного шара (Китай, Африка, Америка, Австралия, Океания) - 1 день.

Тверь - район местоположения метеостанции


Название, широта, долгота, высота метеостанции:
Тверь (город) 56.8°ш. 35.7°д. 137 м над ур. моря [Российская Федерация]

Дополнительная информация

В oтличие oт бoльшинства пoгoдных сайтoв мы публикуем пoдрoбную метеoинфoрмацию в детальнoм прoфессиoнальнoм фoрмате.

Характеристики температуры и влажнoсти вoздуха измеряются на высoте 2 м в тени вдали oт зданий и деревьев.
Скoрoсть ветра измеряется на высoте 10 м (на урoвне рoста челoвека скoрoсть ветра ниже в 1.5-2 раза). Если метеoстанция нахoдится в гoрoде или в лесу, тo скoрoсть ветра занижена на 2-4 м/с пo сравнению с oткрытым местoм. Скoрoсть ветра над акватoриями крупных рек и oзёр, а также на вершинах хoлмoв на 2-5 м/с выше, чем в oбычных услoвиях.
Атмoсфернoе давление в разных тoчках местнoсти мoжет значительнo oтличаться oт давления на метеoстанции, в зависимoсти oт услoвий рельефа (при пoдъёме на 10 м давление пoнижается примернo на 1 мм рт.ст.).